Terug naar catalogus

MTG-S1

ActiefWeerGEO
NORAD 64723·PAYLOAD·🇺🇸 United States

Gelanceerd Jul 1, 2025 vanaf Cape Canaveral Space Force Station

Loading…

TLE

VersSource: Space-Track

Epoch: Sep 14, 2026, 13:48 UTC

1 64723U 25143A   26257.57501435 -.00000015  00000-0  00000-0 0  9996
2 64723   0.6229 340.5245 0003524 254.7418 325.0265  1.00271438  4318

Volg MTG-S1 in realtime met AllMySat

Download on the App Store